Location: Cartignies
(50.0929°N, 3.8447°E)
Time: 14:15:15
(UTC+00:00)

Meteor 1-12 Rocket - Pass Details

Date: 12 January 2026
Orbit: 853 x 925 km, 81.2° (Epoch: 15 February)

Event Time Altitude Azimuth Distance (km) Brightness Sun altitude
Rises 17:50:04 0° 349° (N) 3,454 7.3 -15.9°
Reaches altitude 10° 17:52:33 10° 353° (N) 2,507 6.6 -16.3°
Maximum altitude 17:58:10 61° 74° (ENE) 965 4.2 -17.2°
Drops below altitude 10° 18:03:44 10° 155° (SSE) 2,480 6.5 -18.0°
Sets 18:06:10 0° 159° (SSE) 3,414 7.3 -18.4°
